7 * 24
多渠道服务支持
STARLINK-36970(NORAD编号68071)是美国SpaceX公司星链(Starlink)星座中的一颗第二代低轨通信卫星,属于星链星座第二代扩容组网的组成部分。星链星座旨在通过近地轨道卫星群提供全球覆盖的高速宽带互联网服务,该卫星运行于低地球轨道,配备相控阵天线与星间激光链路技术,可实现高带宽、低延迟的数据传输,同时采用第二代介电镜面薄膜等亮度抑制技术,降低对天文观测的影响。作为星链大规模组网的卫星之一,它承担着为全球用户提供互联网接入服务的功能,助力星链网络覆盖范围与服务容量的持续扩展。
美国
(US)
| 数据来源 | 国际轨道数据 |
| 星历时间: | 2026-07-27T16:49:06+0800 17小时前 查看轨道信息 |
| 半长轴: | 6840.813km |
| 偏心率: | 0.0001021 |
| 轨道倾角: | 53.157° |
| 近地点辐角 | 48.993° |
| 升交点赤经 | 247.586° |
| 平近点角 | 311.116° |
| 近地点: | 461.977km |
| 远地点: | 463.375km |
| 周期: | 93.847分钟 |
| 每日圈数: | 15.344094 |